Regional Weather Roundup
Issued by NWS New Orleans/Baton Rouge, LA

Home | Current Version | Previous Version | Graphics & Text | Print | Product List | Glossary On
Versions: 1 2 3 4 5 6 7 8 9 10 11 12 13 14 15 16 17 18 19 20 21 22 23 24 25 26 27 28 29 30 31 32 33 34 35 36 37 38 39 40 41 42 43 44 45 46 47 48 49 50
553
ASUS44 KLIX 301805
RWRLIX
NEW ORLEANS REGIONAL WEATHER ROUNDUP
NATIONAL WEATHER SERVICE NEW ORLEANS LA
100 PM CDT TUE SEP 30 2014

NOTE: "FAIR" INDICATES FEW OR NO CLOUDS BELOW 12,000 FEET WITH NO
      SIGNIFICANT WEATHER AND/OR OBSTRUCTIONS TO VISIBILITY.
      SKY/WX - SKY CONDITION AND SIGNIFICANT WEATHER.
      TMP - AIR TEMPERATURE.     DP    - DEWPOINT TEMPERATURE.
      RH  - RELATIVE HUMIDITY.   PRES  - PRESSURE.
      HI  - HEAT INDEX.          WCI   - WIND CHILL INDEX.

*  THESE STATIONS ARE NOT NWS OR FAA STATIONS AND ARE NOT UNDER
   NWS QUALITY CONTROL.

LAZ038-040-048-061>063-065>067-069-301900-
SOUTHEAST LOUISIANA

CITY           SKY/WX    TMP DP  RH WIND       PRES   REMARKS
N.O. AUDUBON     N/A     89  73  58 MISG        N/A  HX  96
6HR MIN TEMP:  75; 6HR MAX TEMP:  89;

N.O. INTL ARPT MOSUNNY   86  72  62 NE12      29.89F
6HR MIN TEMP:  75; 6HR MAX TEMP:  86;

N.O. LAKEFRONT PTSUNNY   82  72  71 NE9       29.90F
6HR MIN TEMP:  76; 6HR MAX TEMP:  82;

N.O. DOWNTOWN*   N/A     84  70  61 E6        29.90F
6HR MIN TEMP:  75; 6HR MAX TEMP:  84;

SLIDELL        MOSUNNY   86  70  58 NE5       29.89F
6HR MIN TEMP:  68; 6HR MAX TEMP:  87;

BATON ROUGE    PTSUNNY   86  69  56 SE3       29.89F
6HR MIN TEMP:  69; 6HR MAX TEMP:  89;

BOOTHVILLE     SUNNY     83  76  79 NE8       29.89F
6HR MIN TEMP:  77; 6HR MAX TEMP:  84; 6HR PCP:  0.01;

BELLE CHASSE   PTSUNNY   86  69  56 E6        29.88F
6HR MIN TEMP:  71; 6HR MAX TEMP:  86;

BOGALUSA*        N/A     85  69  57 CALM      29.91F
6HR MIN TEMP:  68; 6HR MAX TEMP:  88;

GALLIANO*      NOT AVBL
NEW ROADS*     MOCLDY    87  71  58 E3        29.89F
6HR MIN TEMP:  68; 6HR MAX TEMP:  87;

GONZALES*      MOCLDY    85  72  65 E7        29.88F
6HR MIN TEMP:  69; 6HR MAX TEMP:  87;

HAMMOND*       SUNNY     88  66  48 S3        29.90F
HOUMA*         PTSUNNY  N/A N/A N/A SE5       29.88
PORT FOURCHON* PTCLDY    82  73  74 SE8       29.92F

$$

MSZ070-080>082-301900-
SOUTHERN MISSISSIPPI

CITY           SKY/WX    TMP DP  RH WIND       PRES   REMARKS
MCCOMB         CLOUDY    83  67  58 S3        29.91F
6HR MIN TEMP:  69; 6HR MAX TEMP:  86;

GULFPORT       CLOUDY    82  72  71 SE8       29.89F
6HR MIN TEMP:  73; 6HR MAX TEMP:  83;

BILOXI         SUNNY     84  72  67 SE7       29.90F
6HR MIN TEMP:  71; 6HR MAX TEMP:  84;

PASCAGOULA     CLOUDY    79  70  74 N7        29.91F
6HR MIN TEMP:  69; 6HR MAX TEMP:  80;

STENNIS ARPT*  PTSUNNY   82  68  61 SE7       29.90F

$$

COASTAL OBSERVATIONS
LAKE AND NEARSHORE STATIONS

STATION/POSITION TIME  TEMP    WIND        PRES    WAVE
                       AIR SEA DIR/SP/G            HT/PER
                 (UTC) (F)     (DEG/KT/KT) (MB)    (FT/S)
PASCAGOULA       1800   81      80/  6/ 10 1012.4
WAVELAND YACHT   1800   77     150/  8/ 11 1012.1
GRAND ISLE       1800   83 81   90/  5/  6 1012.8
SOUTHWEST PASS   1800   94 86   70/  3/  4 1012.4
NEW CANAL        1800   79 77   40/  9/ 10 1012.8
SHELL BEACH      1800   80 75   50/  9/ 10 1012.2

OFFSHORE STATIONS

STATION/POSITION TIME  TEMP    WIND        PRES    WAVE
                       AIR SEA DIR/SP/G            HT/PER
                 (UTC) (F)     (DEG/KT/KT) (MB)    (FT/S)
64 S DAUPHIN ISL 1724   80 83   60/ 12/ 14 1012.4    2/ 5

$$




USA.gov is the U.S. government's official web portal to all federal, state and local government web resources and services.